Year,Month,Day,Hour,Minute,Value (Times are PST for temperature in C)
2021,05,20,00,00,7.80
2021,05,20,00,01,7.80
2021,05,20,00,02,7.80
2021,05,20,00,03,7.70
2021,05,20,00,04,7.70
2021,05,20,00,05,7.70
2021,05,20,00,06,7.60
2021,05,20,00,07,7.60
2021,05,20,00,08,7.60
2021,05,20,00,09,7.50
2021,05,20,00,10,7.50
2021,05,20,00,11,7.40
2021,05,20,00,12,7.40
2021,05,20,00,13,7.40
2021,05,20,00,14,7.30
2021,05,20,00,15,7.30
2021,05,20,00,16,7.30
2021,05,20,00,17,7.30
2021,05,20,00,18,7.20
2021,05,20,00,19,7.20
2021,05,20,00,20,7.20
2021,05,20,00,21,7.20
2021,05,20,00,22,7.10
2021,05,20,00,23,7.10
2021,05,20,00,24,7.10
2021,05,20,00,25,7.10
2021,05,20,00,26,7.10
2021,05,20,00,27,7.10
2021,05,20,00,28,7.10
2021,05,20,00,29,7.10
2021,05,20,00,30,7.10
2021,05,20,00,31,7.10
2021,05,20,00,32,7.00
2021,05,20,00,33,7.00
2021,05,20,00,34,6.90
2021,05,20,00,35,6.90
2021,05,20,00,36,6.90
2021,05,20,00,37,6.90
2021,05,20,00,38,6.90
2021,05,20,00,39,6.80
2021,05,20,00,40,6.80
2021,05,20,00,41,6.80
2021,05,20,00,42,6.80
2021,05,20,00,43,6.80
2021,05,20,00,44,6.70
2021,05,20,00,45,6.70
2021,05,20,00,46,6.70
2021,05,20,00,47,6.70
2021,05,20,00,48,6.70
2021,05,20,00,49,6.60
2021,05,20,00,50,6.60
2021,05,20,00,51,6.60
2021,05,20,00,52,6.50
2021,05,20,00,53,6.50
2021,05,20,00,54,6.50
2021,05,20,00,55,6.50
2021,05,20,00,56,6.50
2021,05,20,00,57,6.50
2021,05,20,00,58,6.40
2021,05,20,00,59,6.40
2021,05,20,01,00,6.40
2021,05,20,01,01,6.40
2021,05,20,01,02,6.40
2021,05,20,01,03,6.30
2021,05,20,01,04,6.30
2021,05,20,01,05,6.30
2021,05,20,01,06,6.30
2021,05,20,01,07,6.30
2021,05,20,01,08,6.30
2021,05,20,01,09,6.30
2021,05,20,01,10,6.30
2021,05,20,01,11,6.30
2021,05,20,01,12,6.30
2021,05,20,01,13,6.30
2021,05,20,01,14,6.30
2021,05,20,01,15,6.30
2021,05,20,01,16,6.20
2021,05,20,01,17,6.20
2021,05,20,01,18,6.20
2021,05,20,01,19,6.20
2021,05,20,01,20,6.20
2021,05,20,01,21,6.20
2021,05,20,01,22,6.20
2021,05,20,01,23,6.20
2021,05,20,01,24,6.20
2021,05,20,01,25,6.20
2021,05,20,01,26,6.20
2021,05,20,01,27,6.20
2021,05,20,01,28,6.20
2021,05,20,01,29,6.10
2021,05,20,01,30,6.10
2021,05,20,01,31,6.10
2021,05,20,01,32,6.10
2021,05,20,01,33,6.10
2021,05,20,01,34,6.10
2021,05,20,01,35,6.00
2021,05,20,01,36,6.00
2021,05,20,01,37,6.00
2021,05,20,01,38,6.00
2021,05,20,01,39,6.00
2021,05,20,01,40,6.00
2021,05,20,01,41,6.00
2021,05,20,01,42,6.00
2021,05,20,01,43,6.00
2021,05,20,01,44,6.00
2021,05,20,01,45,6.00
2021,05,20,01,46,6.00
2021,05,20,01,47,5.90
2021,05,20,01,48,5.90
2021,05,20,01,49,5.90
2021,05,20,01,50,5.90
2021,05,20,01,51,5.90
2021,05,20,01,52,5.90
2021,05,20,01,53,5.90
2021,05,20,01,54,5.90
2021,05,20,01,55,5.90
2021,05,20,01,56,5.90
2021,05,20,01,57,5.90
2021,05,20,01,58,5.90
2021,05,20,01,59,5.90
2021,05,20,02,00,5.90
2021,05,20,02,01,5.90
2021,05,20,02,02,5.80
2021,05,20,02,03,5.80
2021,05,20,02,04,5.80
2021,05,20,02,05,5.80
2021,05,20,02,06,5.80
2021,05,20,02,07,5.80
2021,05,20,02,08,5.80
2021,05,20,02,09,5.80
2021,05,20,02,10,5.80
2021,05,20,02,11,5.70
2021,05,20,02,12,5.70
2021,05,20,02,13,5.70
2021,05,20,02,14,5.70
2021,05,20,02,15,5.70
2021,05,20,02,16,5.70
2021,05,20,02,17,5.60
2021,05,20,02,18,5.60
2021,05,20,02,19,5.60
2021,05,20,02,20,5.60
2021,05,20,02,21,5.60
2021,05,20,02,22,5.60
2021,05,20,02,23,5.60
2021,05,20,02,24,5.60
2021,05,20,02,25,5.60
2021,05,20,02,26,5.60
2021,05,20,02,27,5.60
2021,05,20,02,28,5.70
2021,05,20,02,29,5.70
2021,05,20,02,30,5.70
2021,05,20,02,31,5.80
2021,05,20,02,32,5.80
2021,05,20,02,33,5.80
2021,05,20,02,34,5.80
2021,05,20,02,35,5.80
2021,05,20,02,36,5.80
2021,05,20,02,37,5.80
2021,05,20,02,38,5.80
2021,05,20,02,39,5.80
2021,05,20,02,40,5.80
2021,05,20,02,41,5.70
2021,05,20,02,42,5.70
2021,05,20,02,43,5.70
2021,05,20,02,44,5.70
2021,05,20,02,45,5.70
2021,05,20,02,46,5.70
2021,05,20,02,47,5.70
2021,05,20,02,48,5.70
2021,05,20,02,49,5.60
2021,05,20,02,50,5.60
2021,05,20,02,51,5.60
2021,05,20,02,52,5.50
2021,05,20,02,53,5.50
2021,05,20,02,54,5.50
2021,05,20,02,55,5.50
2021,05,20,02,56,5.60
2021,05,20,02,57,5.60
2021,05,20,02,58,5.60
2021,05,20,02,59,5.60
2021,05,20,03,00,5.60
2021,05,20,03,01,5.60
2021,05,20,03,02,5.60
2021,05,20,03,03,5.50
2021,05,20,03,04,5.50
2021,05,20,03,05,5.50
2021,05,20,03,06,5.50
2021,05,20,03,07,5.50
2021,05,20,03,08,5.50
2021,05,20,03,09,5.40
2021,05,20,03,10,5.40
2021,05,20,03,11,5.40
2021,05,20,03,12,5.40
2021,05,20,03,13,5.30
2021,05,20,03,14,5.30
2021,05,20,03,15,5.30
2021,05,20,03,16,5.30
2021,05,20,03,17,5.20
2021,05,20,03,18,5.20
2021,05,20,03,19,5.20
2021,05,20,03,20,5.20
2021,05,20,03,21,5.20
2021,05,20,03,22,5.20
2021,05,20,03,23,5.20
2021,05,20,03,24,5.10
2021,05,20,03,25,5.10
2021,05,20,03,26,5.10
2021,05,20,03,27,5.10
2021,05,20,03,28,5.10
2021,05,20,03,29,5.10
2021,05,20,03,30,5.10
2021,05,20,03,31,5.00
2021,05,20,03,32,5.00
2021,05,20,03,33,5.00
2021,05,20,03,34,4.90
2021,05,20,03,35,4.90
2021,05,20,03,36,4.90
2021,05,20,03,37,4.90
2021,05,20,03,38,4.90
2021,05,20,03,39,4.90
2021,05,20,03,40,4.90
2021,05,20,03,41,4.80
2021,05,20,03,42,4.80
2021,05,20,03,43,4.80
2021,05,20,03,44,4.80
2021,05,20,03,45,4.80
2021,05,20,03,46,4.80
2021,05,20,03,47,4.80
2021,05,20,03,48,4.80
2021,05,20,03,49,4.80
2021,05,20,03,50,4.80
2021,05,20,03,51,4.70
2021,05,20,03,52,4.70
2021,05,20,03,53,4.70
2021,05,20,03,54,4.70
2021,05,20,03,55,4.70
2021,05,20,03,56,4.70
2021,05,20,03,57,4.70
2021,05,20,03,58,4.70
2021,05,20,03,59,4.60
2021,05,20,04,00,4.60
2021,05,20,04,01,4.60
2021,05,20,04,02,4.60
2021,05,20,04,03,4.50
2021,05,20,04,04,4.50
2021,05,20,04,05,4.50
2021,05,20,04,06,4.50
2021,05,20,04,07,4.50
2021,05,20,04,08,4.40
2021,05,20,04,09,4.40
2021,05,20,04,10,4.40
2021,05,20,04,11,4.40
2021,05,20,04,12,4.30
2021,05,20,04,13,4.30
2021,05,20,04,14,4.30
2021,05,20,04,15,4.30
2021,05,20,04,16,4.30
2021,05,20,04,17,4.30
2021,05,20,04,18,4.30
2021,05,20,04,19,4.20
2021,05,20,04,20,4.20
2021,05,20,04,21,4.20
2021,05,20,04,22,4.20
2021,05,20,04,23,4.20
2021,05,20,04,24,4.10
2021,05,20,04,25,4.10
2021,05,20,04,26,4.10
2021,05,20,04,27,4.10
2021,05,20,04,28,4.10
2021,05,20,04,29,4.10
2021,05,20,04,30,4.10
2021,05,20,04,31,4.10
2021,05,20,04,32,4.10
2021,05,20,04,33,4.10
2021,05,20,04,34,4.00
2021,05,20,04,35,4.00
2021,05,20,04,36,4.00
2021,05,20,04,37,4.00
2021,05,20,04,38,4.00
2021,05,20,04,39,4.00
2021,05,20,04,40,4.00
2021,05,20,04,41,4.00
2021,05,20,04,42,4.00
2021,05,20,04,43,4.00
2021,05,20,04,44,4.00
2021,05,20,04,45,4.00
2021,05,20,04,46,4.10
2021,05,20,04,47,4.10
2021,05,20,04,48,4.10
2021,05,20,04,49,4.10
2021,05,20,04,50,4.10
2021,05,20,04,51,4.10
2021,05,20,04,52,4.00
2021,05,20,04,53,4.00
2021,05,20,04,54,4.00
2021,05,20,04,55,4.00
2021,05,20,04,56,3.90
2021,05,20,04,57,3.90
2021,05,20,04,58,3.90
2021,05,20,04,59,3.90
2021,05,20,05,00,3.90
2021,05,20,05,01,3.90
2021,05,20,05,02,3.90
2021,05,20,05,03,3.90
2021,05,20,05,04,3.90
2021,05,20,05,05,3.90
2021,05,20,05,06,3.90
2021,05,20,05,07,3.90
2021,05,20,05,08,3.90
2021,05,20,05,09,3.90
2021,05,20,05,10,3.90
2021,05,20,05,11,3.90
2021,05,20,05,12,3.90
2021,05,20,05,13,3.90
2021,05,20,05,14,4.00
2021,05,20,05,15,4.00
2021,05,20,05,16,4.00
2021,05,20,05,17,4.00
2021,05,20,05,18,4.00
2021,05,20,05,19,4.00
2021,05,20,05,20,4.00
2021,05,20,05,21,4.00
2021,05,20,05,22,4.00
2021,05,20,05,23,4.00
2021,05,20,05,24,4.00
2021,05,20,05,25,4.10
2021,05,20,05,26,4.10
2021,05,20,05,27,4.00
2021,05,20,05,28,4.00
2021,05,20,05,29,4.00
2021,05,20,05,30,4.00
2021,05,20,05,31,4.00
2021,05,20,05,32,4.00
2021,05,20,05,33,3.90
2021,05,20,05,34,3.90
2021,05,20,05,35,3.90
2021,05,20,05,36,3.90
2021,05,20,05,37,3.90
2021,05,20,05,38,3.90
2021,05,20,05,39,3.90
2021,05,20,05,40,3.90
2021,05,20,05,41,3.90
2021,05,20,05,42,3.90
2021,05,20,05,43,3.80
2021,05,20,05,44,3.80
2021,05,20,05,45,3.80
2021,05,20,05,46,3.80
2021,05,20,05,47,3.80
2021,05,20,05,48,3.80
2021,05,20,05,49,3.80
2021,05,20,05,50,3.70
2021,05,20,05,51,3.70
2021,05,20,05,52,3.70
2021,05,20,05,53,3.70
2021,05,20,05,54,3.70
2021,05,20,05,55,3.70
2021,05,20,05,56,3.70
2021,05,20,05,57,3.70
2021,05,20,05,58,3.70
2021,05,20,05,59,3.70
2021,05,20,06,00,3.70
2021,05,20,06,01,3.70
2021,05,20,06,02,3.70
2021,05,20,06,03,3.70
2021,05,20,06,04,3.60
2021,05,20,06,05,3.60
2021,05,20,06,06,3.60
2021,05,20,06,07,3.60
2021,05,20,06,08,3.60
2021,05,20,06,09,3.60
2021,05,20,06,10,3.50
2021,05,20,06,11,3.50
2021,05,20,06,12,3.50
2021,05,20,06,13,3.50
2021,05,20,06,14,3.50
2021,05,20,06,15,3.50
2021,05,20,06,16,3.50
2021,05,20,06,17,3.40
2021,05,20,06,18,3.40
2021,05,20,06,19,3.40
2021,05,20,06,20,3.40
2021,05,20,06,21,3.40
2021,05,20,06,22,3.30
2021,05,20,06,23,3.30
2021,05,20,06,24,3.30
2021,05,20,06,25,3.30
2021,05,20,06,26,3.30
2021,05,20,06,27,3.30
2021,05,20,06,28,3.30
2021,05,20,06,29,3.30
2021,05,20,06,30,3.30
2021,05,20,06,31,3.30
2021,05,20,06,32,3.40
2021,05,20,06,33,3.40
2021,05,20,06,34,3.40
2021,05,20,06,35,3.40
2021,05,20,06,36,3.40
2021,05,20,06,37,3.40
2021,05,20,06,38,3.40
2021,05,20,06,39,3.40
2021,05,20,06,40,3.40
2021,05,20,06,41,3.40
2021,05,20,06,42,3.40
2021,05,20,06,43,3.40
2021,05,20,06,44,3.40
2021,05,20,06,45,3.40
2021,05,20,06,46,3.40
2021,05,20,06,47,3.50
2021,05,20,06,48,3.50
2021,05,20,06,49,3.50
2021,05,20,06,50,3.50
2021,05,20,06,51,3.50
2021,05,20,06,52,3.50
2021,05,20,06,53,3.50
2021,05,20,06,54,3.50
2021,05,20,06,55,3.50
2021,05,20,06,56,3.50
2021,05,20,06,57,3.50
2021,05,20,06,58,3.50
2021,05,20,06,59,3.50
2021,05,20,07,00,3.50
2021,05,20,07,01,3.40
2021,05,20,07,02,3.40
2021,05,20,07,03,3.40
2021,05,20,07,04,3.40
2021,05,20,07,05,3.50
2021,05,20,07,06,3.40
2021,05,20,07,07,3.40
2021,05,20,07,08,3.40
2021,05,20,07,09,3.40
2021,05,20,07,10,3.40
2021,05,20,07,11,3.40
2021,05,20,07,12,3.40
2021,05,20,07,13,3.40
2021,05,20,07,14,3.40
2021,05,20,07,15,3.40
2021,05,20,07,16,3.40
2021,05,20,07,17,3.40
2021,05,20,07,18,3.40
2021,05,20,07,19,3.40
2021,05,20,07,20,3.40
2021,05,20,07,21,3.40
2021,05,20,07,22,3.40
2021,05,20,07,23,3.40
2021,05,20,07,24,3.40
2021,05,20,07,25,3.40
2021,05,20,07,26,3.40
2021,05,20,07,27,3.40
2021,05,20,07,28,3.40
2021,05,20,07,29,3.40
2021,05,20,07,30,3.40
2021,05,20,07,31,3.40
2021,05,20,07,32,3.40
2021,05,20,07,33,3.40
2021,05,20,07,34,3.40
2021,05,20,07,35,3.40
2021,05,20,07,36,3.40
2021,05,20,07,37,3.40
2021,05,20,07,38,3.40
2021,05,20,07,39,3.40
2021,05,20,07,40,3.40
2021,05,20,07,41,3.40
2021,05,20,07,42,3.40
2021,05,20,07,43,3.40
2021,05,20,07,44,3.40
2021,05,20,07,45,3.40
2021,05,20,07,46,3.40
2021,05,20,07,47,3.40
2021,05,20,07,48,3.40
2021,05,20,07,49,3.40
2021,05,20,07,50,3.40
2021,05,20,07,51,3.40
2021,05,20,07,52,3.40
2021,05,20,07,53,3.40
2021,05,20,07,54,3.40
2021,05,20,07,55,3.40
2021,05,20,07,56,3.40
2021,05,20,07,57,3.40
2021,05,20,07,58,3.50
2021,05,20,07,59,3.50
2021,05,20,08,00,3.50
2021,05,20,08,01,3.60
2021,05,20,08,02,3.60
2021,05,20,08,03,3.60
2021,05,20,08,04,3.70
2021,05,20,08,05,3.70
2021,05,20,08,06,3.80
2021,05,20,08,07,3.80
2021,05,20,08,08,3.90
2021,05,20,08,09,4.00
2021,05,20,08,10,4.00
2021,05,20,08,11,4.10
2021,05,20,08,12,4.10
2021,05,20,08,13,4.20
2021,05,20,08,14,4.30
2021,05,20,08,15,4.30
2021,05,20,08,16,4.40
2021,05,20,08,17,4.40
2021,05,20,08,18,4.40
2021,05,20,08,19,4.50
2021,05,20,08,20,4.50
2021,05,20,08,21,4.60
2021,05,20,08,22,4.60
2021,05,20,08,23,4.70
2021,05,20,08,24,4.70
2021,05,20,08,25,4.70
2021,05,20,08,26,4.80
2021,05,20,08,27,4.80
2021,05,20,08,28,4.90
2021,05,20,08,29,5.00
2021,05,20,08,30,5.10
2021,05,20,08,31,5.10
2021,05,20,08,32,5.20
2021,05,20,08,33,5.20
2021,05,20,08,34,5.30
2021,05,20,08,35,5.30
2021,05,20,08,36,5.40
2021,05,20,08,37,5.40
2021,05,20,08,38,5.50
2021,05,20,08,39,5.50
2021,05,20,08,40,5.60
2021,05,20,08,41,5.60
2021,05,20,08,42,5.60
2021,05,20,08,43,5.60
2021,05,20,08,44,5.60
2021,05,20,08,45,5.60
2021,05,20,08,46,5.60
2021,05,20,08,47,5.60
2021,05,20,08,48,5.60
2021,05,20,08,49,5.60
2021,05,20,08,50,5.70
2021,05,20,08,51,5.70
2021,05,20,08,52,5.70
2021,05,20,08,53,5.70
2021,05,20,08,54,5.80
2021,05,20,08,55,5.80
2021,05,20,08,56,5.90
2021,05,20,08,57,5.90
2021,05,20,08,58,6.00
2021,05,20,08,59,6.10
2021,05,20,09,00,6.10
2021,05,20,09,01,6.20
2021,05,20,09,02,6.30
2021,05,20,09,03,6.40
2021,05,20,09,04,6.40
2021,05,20,09,05,6.50
2021,05,20,09,06,6.60
2021,05,20,09,07,6.70
2021,05,20,09,08,6.70
2021,05,20,09,09,6.80
2021,05,20,09,10,6.90
2021,05,20,09,11,6.90
2021,05,20,09,12,7.00
2021,05,20,09,13,7.10
2021,05,20,09,14,7.10
2021,05,20,09,15,7.20
2021,05,20,09,16,7.20
2021,05,20,09,17,7.30
2021,05,20,09,18,7.30
2021,05,20,09,19,7.30
2021,05,20,09,20,7.40
2021,05,20,09,21,7.50
2021,05,20,09,22,7.60
2021,05,20,09,23,7.70
2021,05,20,09,24,7.80
2021,05,20,09,25,7.90
2021,05,20,09,26,8.00
2021,05,20,09,27,8.20
2021,05,20,09,28,8.30
2021,05,20,09,29,8.40
2021,05,20,09,30,8.60
2021,05,20,09,31,8.70
2021,05,20,09,32,8.80
2021,05,20,09,33,8.80
2021,05,20,09,34,8.80
2021,05,20,09,35,8.90
2021,05,20,09,36,8.90
2021,05,20,09,37,9.00
2021,05,20,09,38,9.00
2021,05,20,09,39,9.10
2021,05,20,09,40,9.20
2021,05,20,09,41,9.30
2021,05,20,09,42,9.30
2021,05,20,09,43,9.40
2021,05,20,09,44,9.40
2021,05,20,09,45,9.40
2021,05,20,09,46,9.50
2021,05,20,09,47,9.50
2021,05,20,09,48,9.50
2021,05,20,09,49,9.60
2021,05,20,09,50,9.60
2021,05,20,09,51,9.60
2021,05,20,09,52,9.60
2021,05,20,09,53,9.60
2021,05,20,09,54,9.60
2021,05,20,09,55,9.70
2021,05,20,09,56,9.70
2021,05,20,09,57,9.80
2021,05,20,09,58,9.80
2021,05,20,09,59,9.80
2021,05,20,10,00,9.80
2021,05,20,10,01,9.80
2021,05,20,10,02,9.80
2021,05,20,10,03,9.90
2021,05,20,10,04,9.90
2021,05,20,10,05,9.90
2021,05,20,10,06,9.90
2021,05,20,10,07,9.90
2021,05,20,10,08,10.00
2021,05,20,10,09,10.10
2021,05,20,10,10,10.10
2021,05,20,10,11,10.10
2021,05,20,10,12,10.20
2021,05,20,10,13,10.20
2021,05,20,10,14,10.20
2021,05,20,10,15,10.20
2021,05,20,10,16,10.20
2021,05,20,10,17,10.30
2021,05,20,10,18,10.40
2021,05,20,10,19,10.40
2021,05,20,10,20,10.50
2021,05,20,10,21,10.60
2021,05,20,10,22,10.60
2021,05,20,10,23,10.70
2021,05,20,10,24,10.80
2021,05,20,10,25,10.90
2021,05,20,10,26,10.90
2021,05,20,10,27,10.90
2021,05,20,10,28,10.90
2021,05,20,10,29,10.90
2021,05,20,10,30,10.90
2021,05,20,10,31,10.90
2021,05,20,10,32,10.90
2021,05,20,10,33,11.00
2021,05,20,10,34,11.00
2021,05,20,10,35,11.00
2021,05,20,10,36,11.00
2021,05,20,10,37,11.00
2021,05,20,10,38,11.10
2021,05,20,10,39,11.10
2021,05,20,10,40,11.20
2021,05,20,10,41,11.20
2021,05,20,10,42,11.20
2021,05,20,10,43,11.30
2021,05,20,10,44,11.30
2021,05,20,10,45,11.40
2021,05,20,10,46,11.40
2021,05,20,10,47,11.40
2021,05,20,10,48,11.50
2021,05,20,10,49,11.50
2021,05,20,10,50,11.60
2021,05,20,10,51,11.60
2021,05,20,10,52,11.70
2021,05,20,10,53,11.70
2021,05,20,10,54,11.80
2021,05,20,10,55,11.90
2021,05,20,10,56,11.90
2021,05,20,10,57,11.90
2021,05,20,10,58,12.00
2021,05,20,10,59,12.10
2021,05,20,11,00,12.20
2021,05,20,11,01,12.30
2021,05,20,11,02,12.40
2021,05,20,11,03,12.50
2021,05,20,11,04,12.60
2021,05,20,11,05,12.60
2021,05,20,11,06,12.70
2021,05,20,11,07,12.70
2021,05,20,11,08,12.70
2021,05,20,11,09,12.70
2021,05,20,11,10,12.70
2021,05,20,11,11,12.80
2021,05,20,11,12,12.80
2021,05,20,11,13,12.80
2021,05,20,11,14,12.90
2021,05,20,11,15,13.00
2021,05,20,11,16,13.10
2021,05,20,11,17,13.20
2021,05,20,11,18,13.30
2021,05,20,11,19,13.40
2021,05,20,11,20,13.50
2021,05,20,11,21,13.60
2021,05,20,11,22,13.60
2021,05,20,11,23,13.60
2021,05,20,11,24,13.60
2021,05,20,11,25,13.60
2021,05,20,11,26,13.60
2021,05,20,11,27,13.60
2021,05,20,11,28,13.60
2021,05,20,11,29,13.70
2021,05,20,11,30,13.70
2021,05,20,11,31,13.80
2021,05,20,11,32,13.80
2021,05,20,11,33,13.90
2021,05,20,11,34,13.90
2021,05,20,11,35,13.90
2021,05,20,11,36,13.90
2021,05,20,11,37,14.00
2021,05,20,11,38,14.10
2021,05,20,11,39,14.10
2021,05,20,11,40,14.20
2021,05,20,11,41,14.30
2021,05,20,11,42,14.30
2021,05,20,11,43,14.40
2021,05,20,11,44,14.40
2021,05,20,11,45,14.50
2021,05,20,11,46,14.50
2021,05,20,11,47,14.60
2021,05,20,11,48,14.60
2021,05,20,11,49,14.60
2021,05,20,11,50,14.60
2021,05,20,11,51,14.70
2021,05,20,11,52,14.70
2021,05,20,11,53,14.70
2021,05,20,11,54,14.70
2021,05,20,11,55,14.80
2021,05,20,11,56,14.80
2021,05,20,11,57,14.90
2021,05,20,11,58,14.90
2021,05,20,11,59,15.00
2021,05,20,12,00,15.00
2021,05,20,12,01,15.10
2021,05,20,12,02,15.20
2021,05,20,12,03,15.30
2021,05,20,12,04,15.40
2021,05,20,12,05,15.50
2021,05,20,12,06,15.60
2021,05,20,12,07,15.60
2021,05,20,12,08,15.70
2021,05,20,12,09,15.70
2021,05,20,12,10,15.80
2021,05,20,12,11,15.80
2021,05,20,12,12,15.80
2021,05,20,12,13,15.80
2021,05,20,12,14,15.80
2021,05,20,12,15,15.70
2021,05,20,12,16,15.70
2021,05,20,12,17,15.70
2021,05,20,12,18,15.70
2021,05,20,12,19,15.70
2021,05,20,12,20,15.70
2021,05,20,12,21,15.80
2021,05,20,12,22,15.80
2021,05,20,12,23,15.80
2021,05,20,12,24,15.80
2021,05,20,12,25,15.80
2021,05,20,12,26,15.70
2021,05,20,12,27,15.70
2021,05,20,12,28,15.60
2021,05,20,12,29,15.60
2021,05,20,12,30,15.60
2021,05,20,12,31,15.50
2021,05,20,12,32,15.50
2021,05,20,12,33,15.50
2021,05,20,12,34,15.50
2021,05,20,12,35,15.60
2021,05,20,12,36,15.60
2021,05,20,12,37,15.60
2021,05,20,12,38,15.60
2021,05,20,12,39,15.70
2021,05,20,12,40,15.70
2021,05,20,12,41,15.70
2021,05,20,12,42,15.70
2021,05,20,12,43,15.70
2021,05,20,12,44,15.80
2021,05,20,12,45,15.80
2021,05,20,12,46,15.80
2021,05,20,12,47,15.80
2021,05,20,12,48,15.80
2021,05,20,12,49,15.80
2021,05,20,12,50,15.70
2021,05,20,12,51,15.70
2021,05,20,12,52,15.70
2021,05,20,12,53,15.70
2021,05,20,12,54,15.60
2021,05,20,12,55,15.60
2021,05,20,12,56,15.60
2021,05,20,12,57,15.60
2021,05,20,12,58,15.70
2021,05,20,12,59,15.70
2021,05,20,13,00,15.70
2021,05,20,13,01,15.80
2021,05,20,13,02,15.80
2021,05,20,13,03,15.80
2021,05,20,13,04,15.90
2021,05,20,13,05,15.90
2021,05,20,13,06,15.90
2021,05,20,13,07,15.90
2021,05,20,13,08,16.00
2021,05,20,13,09,16.00
2021,05,20,13,10,16.10
2021,05,20,13,11,16.10
2021,05,20,13,12,16.20
2021,05,20,13,13,16.20
2021,05,20,13,14,16.20
2021,05,20,13,15,16.30
2021,05,20,13,16,16.30
2021,05,20,13,17,16.30
2021,05,20,13,18,16.30
2021,05,20,13,19,16.30
2021,05,20,13,20,16.30
2021,05,20,13,21,16.30
2021,05,20,13,22,16.30
2021,05,20,13,23,16.30
2021,05,20,13,24,16.30
2021,05,20,13,25,16.30
2021,05,20,13,26,16.30
2021,05,20,13,27,16.40
2021,05,20,13,28,16.40
2021,05,20,13,29,16.40
2021,05,20,13,30,16.40
2021,05,20,13,31,16.40
2021,05,20,13,32,16.40
2021,05,20,13,33,16.40
2021,05,20,13,34,16.40
2021,05,20,13,35,16.40
2021,05,20,13,36,16.40
2021,05,20,13,37,16.40
2021,05,20,13,38,16.40
2021,05,20,13,39,16.40
2021,05,20,13,40,16.50
2021,05,20,13,41,16.50
2021,05,20,13,42,16.60
2021,05,20,13,43,16.60
2021,05,20,13,44,16.60
2021,05,20,13,45,16.70
2021,05,20,13,46,16.70
2021,05,20,13,47,16.80
2021,05,20,13,48,16.80
2021,05,20,13,49,16.90
2021,05,20,13,50,16.90
2021,05,20,13,51,16.90
2021,05,20,13,52,16.90
2021,05,20,13,53,16.80
2021,05,20,13,54,16.80
2021,05,20,13,55,16.80
2021,05,20,13,56,16.80
2021,05,20,13,57,16.80
2021,05,20,13,58,16.90
2021,05,20,13,59,16.90
2021,05,20,14,00,17.00
2021,05,20,14,01,17.00
2021,05,20,14,02,17.10
2021,05,20,14,03,17.20
2021,05,20,14,04,17.20
2021,05,20,14,05,17.30
2021,05,20,14,06,17.30
2021,05,20,14,07,17.30
2021,05,20,14,08,17.30
2021,05,20,14,09,17.20
2021,05,20,14,10,17.20
2021,05,20,14,11,17.20
2021,05,20,14,12,17.20
2021,05,20,14,13,17.30
2021,05,20,14,14,17.40
2021,05,20,14,15,17.50
2021,05,20,14,16,17.50
2021,05,20,14,17,17.60
2021,05,20,14,18,17.60
2021,05,20,14,19,17.60
2021,05,20,14,20,17.60
2021,05,20,14,21,17.60
2021,05,20,14,22,17.50
2021,05,20,14,23,17.50
2021,05,20,14,24,17.50
2021,05,20,14,25,17.50
2021,05,20,14,26,17.60
2021,05,20,14,27,17.60
2021,05,20,14,28,17.60
2021,05,20,14,29,17.60
2021,05,20,14,30,17.60
2021,05,20,14,31,17.60
2021,05,20,14,32,17.60
2021,05,20,14,33,17.50
2021,05,20,14,34,17.40
2021,05,20,14,35,17.40
2021,05,20,14,36,17.40
2021,05,20,14,37,17.40
2021,05,20,14,38,17.40
2021,05,20,14,39,17.30
2021,05,20,14,40,17.30
2021,05,20,14,41,17.20
2021,05,20,14,42,17.20
2021,05,20,14,43,17.10
2021,05,20,14,44,17.10
2021,05,20,14,45,17.10
2021,05,20,14,46,17.10
2021,05,20,14,47,17.10
2021,05,20,14,48,17.10
2021,05,20,14,49,17.10
2021,05,20,14,50,17.10
2021,05,20,14,51,17.10
2021,05,20,14,52,17.10
2021,05,20,14,53,17.20
2021,05,20,14,54,17.20
2021,05,20,14,55,17.20
2021,05,20,14,56,17.20
2021,05,20,14,57,17.30
2021,05,20,14,58,17.30
2021,05,20,14,59,17.40
2021,05,20,15,00,17.40
2021,05,20,15,01,17.40
2021,05,20,15,02,17.40
2021,05,20,15,03,17.50
2021,05,20,15,04,17.50
2021,05,20,15,05,17.40
2021,05,20,15,06,17.40
2021,05,20,15,07,17.40
2021,05,20,15,08,17.30
2021,05,20,15,09,17.30
2021,05,20,15,10,17.30
2021,05,20,15,11,17.30
2021,05,20,15,12,17.30
2021,05,20,15,13,17.30
2021,05,20,15,14,17.30
2021,05,20,15,15,17.30
2021,05,20,15,16,17.20
2021,05,20,15,17,17.20
2021,05,20,15,18,17.30
2021,05,20,15,19,17.30
2021,05,20,15,20,17.40
2021,05,20,15,21,17.50
2021,05,20,15,22,17.50
2021,05,20,15,23,17.60
2021,05,20,15,24,17.60
2021,05,20,15,25,17.70
2021,05,20,15,26,17.70
2021,05,20,15,27,17.70
2021,05,20,15,28,17.80
2021,05,20,15,29,17.80
2021,05,20,15,30,17.80
2021,05,20,15,31,17.80
2021,05,20,15,32,17.80
2021,05,20,15,33,17.70
2021,05,20,15,34,17.70
2021,05,20,15,35,17.60
2021,05,20,15,36,17.60
2021,05,20,15,37,17.50
2021,05,20,15,38,17.40
2021,05,20,15,39,17.40
2021,05,20,15,40,17.30
2021,05,20,15,41,17.30
2021,05,20,15,42,17.30
2021,05,20,15,43,17.30
2021,05,20,15,44,17.30
2021,05,20,15,45,17.40
2021,05,20,15,46,17.40
2021,05,20,15,47,17.40
2021,05,20,15,48,17.40
2021,05,20,15,49,17.40
2021,05,20,15,50,17.30
2021,05,20,15,51,17.30
2021,05,20,15,52,17.30
2021,05,20,15,53,17.20
2021,05,20,15,54,17.20
2021,05,20,15,55,17.20
2021,05,20,15,56,17.20
2021,05,20,15,57,17.20
2021,05,20,15,58,17.20
2021,05,20,15,59,17.20
2021,05,20,16,00,17.10
2021,05,20,16,01,17.10
2021,05,20,16,02,17.10
2021,05,20,16,03,17.00
2021,05,20,16,04,17.00
2021,05,20,16,05,16.90
2021,05,20,16,06,16.90
2021,05,20,16,07,16.90
2021,05,20,16,08,16.90
2021,05,20,16,09,16.80
2021,05,20,16,10,16.80
2021,05,20,16,11,16.80
2021,05,20,16,12,16.80
2021,05,20,16,13,16.80
2021,05,20,16,14,16.80
2021,05,20,16,15,16.80
2021,05,20,16,16,16.80
2021,05,20,16,17,16.80
2021,05,20,16,18,16.80
2021,05,20,16,19,16.70
2021,05,20,16,20,16.70
2021,05,20,16,21,16.70
2021,05,20,16,22,16.70
2021,05,20,16,23,16.70
2021,05,20,16,24,16.70
2021,05,20,16,25,16.70
2021,05,20,16,26,16.70
2021,05,20,16,27,16.70
2021,05,20,16,28,16.70
2021,05,20,16,29,16.60
2021,05,20,16,30,16.60
2021,05,20,16,31,16.60
2021,05,20,16,32,16.60
2021,05,20,16,33,16.60
2021,05,20,16,34,16.60
2021,05,20,16,35,16.70
2021,05,20,16,36,16.70
2021,05,20,16,37,16.70
2021,05,20,16,38,16.60
2021,05,20,16,39,16.70
2021,05,20,16,40,16.70
2021,05,20,16,41,16.70
2021,05,20,16,42,16.70
2021,05,20,16,43,16.80
2021,05,20,16,44,16.80
2021,05,20,16,45,16.80
2021,05,20,16,46,16.80
2021,05,20,16,47,16.90
2021,05,20,16,48,16.90
2021,05,20,16,49,16.90
2021,05,20,16,50,16.90
2021,05,20,16,51,16.90
2021,05,20,16,52,16.90
2021,05,20,16,53,16.90
2021,05,20,16,54,17.00
2021,05,20,16,55,17.00
2021,05,20,16,56,16.90
2021,05,20,16,57,17.00
2021,05,20,16,58,17.00
2021,05,20,16,59,16.90
2021,05,20,17,00,16.90
2021,05,20,17,01,16.90
2021,05,20,17,02,16.80
2021,05,20,17,03,16.80
2021,05,20,17,04,16.80
2021,05,20,17,05,16.70
2021,05,20,17,06,16.70
2021,05,20,17,07,16.70
2021,05,20,17,08,16.70
2021,05,20,17,09,16.70
2021,05,20,17,10,16.60
2021,05,20,17,11,16.60
2021,05,20,17,12,16.60
2021,05,20,17,13,16.60
2021,05,20,17,14,16.60
2021,05,20,17,15,16.60
2021,05,20,17,16,16.60
2021,05,20,17,17,16.60
2021,05,20,17,18,16.60
2021,05,20,17,19,16.60
2021,05,20,17,20,16.60
2021,05,20,17,21,16.60
2021,05,20,17,22,16.60
2021,05,20,17,23,16.60
2021,05,20,17,24,16.60
2021,05,20,17,25,16.60
2021,05,20,17,26,16.50
2021,05,20,17,27,16.50
2021,05,20,17,28,16.50
2021,05,20,17,29,16.50
2021,05,20,17,30,16.50
2021,05,20,17,31,16.50
2021,05,20,17,32,16.50
2021,05,20,17,33,16.50
2021,05,20,17,34,16.50
2021,05,20,17,35,16.50
2021,05,20,17,36,16.40
2021,05,20,17,37,16.40
2021,05,20,17,38,16.40
2021,05,20,17,39,16.40
2021,05,20,17,40,16.40
2021,05,20,17,41,16.40
2021,05,20,17,42,16.40
2021,05,20,17,43,16.40
2021,05,20,17,44,16.40
2021,05,20,17,45,16.40